Location: Unspecified
(0.0000°N, 0.0000°E)
Time: 13:20:11
(UTC+00:00)

LightSail 2 - Pass Details

Date: 11 September 2019
Orbit: 699 x 732 km, 24.0° (Epoch: 17 September)

Event Time Altitude Azimuth Distance (km) Brightness Sun altitude
Exits shadow 03:41:54 19° 138° (SE) 1,616 7.3 -33.6°
Drops below altitude 10° 03:44:32 10° 109° (ESE) 2,161 8.3 -33.0°
Sets 03:47:30 0° 93° (E) 3,084 9.5 -32.2°
